sat.trackr.live / text

‹ back to catalog

STARLINK-3279

NORAD 50185 · 2021-125AF

PAYLOAD ACTIVE UNKNOWN

§ Identity

Operator
Country
US
Launch date
2021-12-18
Launch site
AFWTR
Launch vehicle
Mass (kg)
RCS (m²)

Purposes: comms

External: N2YO · Heavens-Above · Gunter

§ Orbital elements

Epoch: 2026-09-20T01:42:07.221024Z

Period
94.01 min
Inclination
53.1595°
Eccentricity
0.0001226
Mean motion
15.31708977 rev/d
Perigee alt
469.9 km
Apogee alt
471.6 km
Semi-major
6,848.9 km
B*
1.7664e-5
RAAN
83.7553°
Arg perigee
88.7012°
Mean anomaly
271.4130°
Rev number
26,612

§ Raw data

STARLINK-32791 50185U 21125AF  26263.07091691  .00000183  00000+0  17664-4 0  99912 50185  53.1595  83.7553 0001226  88.7012 271.4130 15.31708977266120

JSON: /api/v1/satellites/50185 · /tle

For live sub-satellite position, see the globe view (requires WebGL).

§ Visibility from observer

Set your observer location to see the next 7 days of passes ≥ 10°. The values pass through the URL so the page stays shareable.

No JS? Fill the form by hand. The geolocation button needs JavaScript.